| time (UTC) | temp F | wind direction | speed knots | gust knots | rain 1hr in | rain 24hr in | rain mn in | humidity % | barometer mb |
| 20260903205526 | 87 | 168 | 7.0 | 9.6 | 0.00 | 0.10 | 0.10 | 67 | 1013.3 |
| 20260903205025 | 87 | 183 | 7.0 | 9.6 | 0.00 | 0.10 | 0.10 | 66 | 1013.3 |
| 20260903204543 | 87 | 189 | 6.1 | 11.3 | 0.00 | 0.10 | 0.10 | 66 | 1013.4 |
| 20260903204043 | 87 | 178 | 7.8 | 11.3 | 0.00 | 0.10 | 0.10 | 67 | 1013.5 |
| 20260903203541 | 88 | 200 | 8.7 | 11.3 | 0.00 | 0.10 | 0.10 | 65 | 1013.7 |
| 20260903203040 | 88 | 209 | 7.8 | 9.6 | 0.00 | 0.10 | 0.10 | 67 | 1013.5 |
| 20260903202539 | 88 | 174 | 6.1 | 13.0 | 0.00 | 0.10 | 0.10 | 66 | 1013.5 |
| 20260903202103 | 88 | 236 | 3.5 | 13.0 | 0.00 | 0.10 | 0.10 | 66 | 1013.5 |
| 20260903201540 | 87 | 180 | 7.8 | 12.2 | 0.00 | 0.10 | 0.10 | 66 | 1013.6 |
| 20260903201042 | 88 | 194 | 8.7 | 11.3 | 0.00 | 0.10 | 0.10 | 65 | 1013.9 |
| 20260903200541 | 87 | 168 | 9.6 | 13.0 | 0.00 | 0.10 | 0.10 | 65 | 1013.9 |
| 20260903200039 | 88 | 185 | 8.7 | 13.0 | 0.00 | 0.10 | 0.10 | 66 | 1013.9 |
| 20260903195535 | 88 | 160 | 6.1 | 9.6 | 0.00 | 0.10 | 0.10 | 65 | 1013.9 |
| 20260903195036 | 87 | 161 | 6.1 | 11.3 | 0.00 | 0.10 | 0.10 | 67 | 1013.9 |
| 20260903194531 | 87 | 217 | 7.8 | 11.3 | 0.00 | 0.10 | 0.10 | 64 | 1014.1 |
| 20260903194031 | 88 | 178 | 7.8 | 11.3 | 0.00 | 0.10 | 0.10 | 66 | 1014.1 |
| 20260903193553 | 87 | 153 | 6.1 | 8.7 | 0.00 | 0.10 | 0.10 | 66 | 1014.1 |
| 20260903193031 | 87 | 191 | 4.3 | 10.4 | 0.00 | 0.10 | 0.10 | 66 | 1014.3 |
| 20260903192529 | 86 | 219 | 5.2 | 10.4 | 0.00 | 0.10 | 0.10 | 65 | 1014.3 |
| 20260903192028 | 86 | 205 | 4.3 | 11.3 | 0.00 | 0.10 | 0.10 | 65 | 1014.4 |
| 20260903191526 | 86 | 210 | 5.2 | 11.3 | 0.00 | 0.10 | 0.10 | 68 | 1014.4 |
| 20260903191025 | 86 | 183 | 7.0 | 10.4 | 0.00 | 0.10 | 0.10 | 67 | 1014.7 |
| 20260903190543 | 85 | 186 | 4.3 | 9.6 | 0.00 | 0.10 | 0.10 | 68 | 1014.7 |
| 20260903190026 | 85 | 238 | 7.8 | 10.4 | 0.00 | 0.10 | 0.10 | 67 | 1014.8 |
| 20260903185544 | 85 | 209 | 2.6 | 7.8 | 0.00 | 0.10 | 0.10 | 67 | 1014.9 |
| 20260903185044 | 85 | 227 | 2.6 | 11.3 | 0.00 | 0.10 | 0.10 | 70 | 1015.0 |
| 20260903184541 | 85 | 191 | 8.7 | 11.3 | 0.00 | 0.10 | 0.10 | 69 | 1015.1 |
| 20260903184041 | 84 | 188 | 8.7 | 11.3 | 0.00 | 0.10 | 0.10 | 70 | 1015.1 |
| 20260903183537 | 84 | 232 | 7.0 | 13.9 | 0.00 | 0.10 | 0.10 | 72 | 1015.2 |
| 20260903183036 | 83 | 180 | 9.6 | 13.9 | 0.00 | 0.10 | 0.10 | 71 | 1015.3 |
| 20260903182532 | 83 | 190 | 7.8 | 12.2 | 0.00 | 0.10 | 0.10 | 72 | 1015.3 |
| 20260903182032 | 83 | 201 | 7.8 | 12.2 | 0.00 | 0.10 | 0.10 | 71 | 1015.4 |
| 20260903181529 | 83 | 213 | 7.8 | 13.9 | 0.00 | 0.10 | 0.10 | 71 | 1015.4 |
| 20260903181028 | 83 | 181 | 7.0 | 13.9 | 0.00 | 0.10 | 0.10 | 71 | 1015.4 |
| 20260903180526 | 83 | 153 | 6.1 | 13.0 | 0.00 | 0.10 | 0.10 | 73 | 1015.4 |
| 20260903180051 | 83 | 251 | 3.5 | 12.2 | 0.00 | 0.10 | 0.10 | 74 | 1015.5 |
| 20260903175528 | 83 | 203 | 6.1 | 13.0 | 0.00 | 0.11 | 0.10 | 73 | 1015.6 |
| 20260903175052 | 82 | 168 | 7.0 | 14.8 | 0.00 | 0.11 | 0.10 | 72 | 1015.6 |
| 20260903174549 | 82 | 221 | 4.3 | 11.3 | 0.00 | 0.11 | 0.10 | 70 | 1015.8 |
| 20260903174027 | 81 | 236 | 4.3 | 12.2 | 0.00 | 0.11 | 0.10 | 73 | 1015.8 |
| 20260903173530 | 81 | 198 | 6.1 | 12.2 | 0.00 | 0.11 | 0.10 | 74 | 1015.9 |
| 20260903173049 | 81 | 180 | 5.2 | 11.3 | 0.00 | 0.11 | 0.10 | 75 | 1016.1 |
| 20260903172546 | 80 | 192 | 5.2 | 11.3 | 0.00 | 0.11 | 0.10 | 76 | 1016.0 |
| 20260903172044 | 79 | 194 | 7.0 | 11.3 | 0.00 | 0.11 | 0.10 | 78 | 1016.2 |
| 20260903171541 | 79 | 207 | 6.1 | 11.3 | 0.00 | 0.11 | 0.10 | 77 | 1016.3 |
| 20260903171040 | 78 | 173 | 9.6 | 13.0 | 0.00 | 0.11 | 0.10 | 78 | 1016.4 |
| 20260903170538 | 78 | 184 | 9.6 | 13.0 | 0.00 | 0.11 | 0.10 | 76 | 1016.4 |
| 20260903170037 | 78 | 194 | 5.2 | 10.4 | 0.00 | 0.11 | 0.10 | 79 | 1016.3 |
| 20260903165535 | 78 | 174 | 7.0 | 11.3 | 0.00 | 0.38 | 0.10 | 79 | 1016.5 |
| 20260903165034 | 77 | 191 | 7.8 | 11.3 | 0.00 | 0.38 | 0.10 | 82 | 1016.5 |
| 20260903164557 | 76 | 176 | 6.1 | 10.4 | 0.00 | 0.38 | 0.10 | 83 | 1016.7 |
| 20260903164034 | 76 | 186 | 4.3 | 10.4 | 0.00 | 0.38 | 0.10 | 83 | 1016.7 |
| 20260903163529 | 75 | 207 | 7.0 | 10.4 | 0.00 | 0.38 | 0.10 | 84 | 1016.8 |
| 20260903163055 | 75 | 232 | 6.1 | 8.7 | 0.00 | 0.38 | 0.10 | 84 | 1017.0 |
| 20260903162555 | 75 | 187 | 6.1 | 8.7 | 0.00 | 0.38 | 0.10 | 85 | 1017.0 |
| 20260903162034 | 75 | 173 | 5.2 | 7.8 | 0.00 | 0.38 | 0.10 | 86 | 1016.9 |
| 20260903161551 | 75 | 220 | 2.6 | 10.4 | 0.00 | 0.38 | 0.10 | 86 | 1017.0 |
| 20260903161054 | 74 | 192 | 7.0 | 10.4 | 0.00 | 0.38 | 0.10 | 85 | 1017.0 |
| 20260903160553 | 74 | 183 | 7.8 | 10.4 | 0.00 | 0.38 | 0.10 | 89 | 1017.1 |
| 20260903160031 | 73 | 267 | 6.1 | 10.4 | 0.00 | 0.38 | 0.10 | 89 | 1017.1 |
| 20260903155529 | 73 | 184 | 7.0 | 9.6 | 0.00 | 0.42 | 0.10 | 89 | 1017.4 |
| 20260903155028 | 73 | 183 | 5.2 | 11.3 | 0.00 | 0.42 | 0.10 | 89 | 1017.6 |
| 20260903154529 | 73 | 205 | 4.3 | 11.3 | 0.01 | 0.42 | 0.10 | 90 | 1017.8 |
| 20260903154027 | 73 | 224 | 3.5 | 12.2 | 0.01 | 0.42 | 0.10 | 90 | 1017.9 |
| 20260903153525 | 73 | 210 | 3.5 | 13.9 | 0.01 | 0.42 | 0.10 | 89 | 1018.1 |
| 20260903153043 | 73 | 240 | 6.1 | 13.9 | 0.02 | 0.42 | 0.10 | 90 | 1018.2 |
| 20260903152540 | 73 | 252 | 5.2 | 10.4 | 0.03 | 0.42 | 0.10 | 90 | 1018.1 |
| 20260903152039 | 73 | 221 | 2.6 | 9.6 | 0.04 | 0.42 | 0.10 | 91 | 1018.0 |
| 20260903151538 | 72 | 220 | 3.5 | 7.8 | 0.05 | 0.42 | 0.10 | 91 | 1017.6 |
| 20260903151100 | 72 | 198 | 1.7 | 7.8 | 0.06 | 0.42 | 0.10 | 92 | 1017.5 |
| 20260903150603 | 72 | 207 | 4.3 | 7.8 | 0.08 | 0.42 | 0.10 | 91 | 1017.1 |
| 20260903150040 | 72 | 146 | 5.2 | 7.8 | 0.08 | 0.42 | 0.10 | 91 | 1016.8 |
| 20260903145538 | 71 | 146 | 2.6 | 9.6 | 0.08 | 0.42 | 0.10 | 91 | 1016.6 |
| 20260903145037 | 71 | 114 | 3.5 | 11.3 | 0.07 | 0.41 | 0.09 | 90 | 1016.6 |
| 20260903144534 | 72 | 132 | 7.8 | 12.2 | 0.07 | 0.41 | 0.09 | 90 | 1016.7 |
| 20260903144034 | 72 | 120 | 7.8 | 12.2 | 0.07 | 0.41 | 0.09 | 90 | 1017.2 |
| 20260903143531 | 72 | 141 | 6.1 | 8.7 | 0.07 | 0.41 | 0.09 | 89 | 1018.1 |
| 20260903143030 | 72 | 137 | 5.2 | 7.8 | 0.06 | 0.40 | 0.08 | 89 | 1018.5 |
| 20260903142532 | 72 | 178 | 3.5 | 4.3 | 0.05 | 0.39 | 0.07 | 88 | 1019.1 |
| 20260903142031 | 73 | 203 | 0.9 | 4.3 | 0.04 | 0.38 | 0.06 | 87 | 1019.4 |
| 20260903141554 | 73 | 311 | 0.9 | 7.8 | 0.02 | 0.36 | 0.04 | 86 | 1019.6 |
| 20260903141032 | 73 | 311 | 1.7 | 13.9 | 0.01 | 0.35 | 0.03 | 86 | 1019.2 |
| 20260903140529 | 73 | 333 | 4.3 | 18.2 | 0.00 | 0.34 | 0.02 | 86 | 1019.6 |
| 20260903140028 | 73 | 318 | 12.2 | 18.2 | 0.00 | 0.34 | 0.02 | 87 | 1019.5 |
| 20260903135545 | 73 | 292 | 7.0 | 15.6 | 0.00 | 0.34 | 0.02 | 88 | 1019.3 |
| 20260903135042 | 73 | 186 | 5.2 | 7.8 | 0.00 | 0.34 | 0.02 | 88 | 1017.3 |
| 20260903134539 | 74 | 183 | 5.2 | 7.0 | 0.00 | 0.34 | 0.02 | 88 | 1017.0 |
| 20260903134038 | 74 | 207 | 2.6 | 7.8 | 0.00 | 0.34 | 0.02 | 88 | 1016.8 |
| 20260903133534 | 74 | 163 | 5.2 | 8.7 | 0.00 | 0.34 | 0.02 | 88 | 1016.9 |
| 20260903133033 | 74 | 174 | 5.2 | 8.7 | 0.00 | 0.34 | 0.02 | 88 | 1017.0 |
| 20260903132531 | 74 | 163 | 4.3 | 9.6 | 0.00 | 0.34 | 0.02 | 88 | 1017.0 |
| 20260903132055 | 74 | 203 | 3.5 | 7.8 | 0.00 | 0.34 | 0.02 | 88 | 1016.9 |
| 20260903131532 | 74 | 215 | 3.5 | 7.8 | 0.00 | 0.34 | 0.02 | 88 | 1017.1 |
| 20260903131031 | 74 | 225 | 0.9 | 7.8 | 0.00 | 0.34 | 0.02 | 89 | 1017.2 |
| 20260903130529 | 73 | 204 | 1.7 | 7.8 | 0.00 | 0.34 | 0.02 | 90 | 1017.3 |
| 20260903130032 | 73 | 185 | 3.5 | 7.8 | 0.00 | 0.34 | 0.02 | 89 | 1017.4 |
| 20260903125529 | 73 | 240 | 2.6 | 7.0 | 0.00 | 0.34 | 0.02 | 89 | 1017.4 |
| 20260903125028 | 73 | 217 | 1.7 | 7.8 | 0.00 | 0.34 | 0.02 | 91 | 1017.5 |
| 20260903124526 | 72 | 211 | 2.6 | 7.8 | 0.00 | 0.34 | 0.02 | 92 | 1017.5 |
| 20260903124026 | 72 | 219 | 1.7 | 7.0 | 0.00 | 0.34 | 0.02 | 92 | 1017.6 |
| 20260903123543 | 72 | 254 | 3.5 | 7.8 | 0.00 | 0.34 | 0.02 | 92 | 1017.6 |
| 20260903123042 | 72 | 214 | 3.5 | 8.7 | 0.00 | 0.34 | 0.02 | 92 | 1017.4 |
| 20260903122540 | 72 | 199 | 3.5 | 8.7 | 0.00 | 0.34 | 0.02 | 92 | 1017.2 |
| 20260903122039 | 72 | 171 | 1.7 | 7.0 | 0.00 | 0.34 | 0.02 | 92 | 1017.2 |
| 20260903121600 | 72 | 203 | 1.7 | 6.1 | 0.00 | 0.34 | 0.02 | 93 | 1017.4 |
| 20260903121039 | 72 | 186 | 3.5 | 6.1 | 0.00 | 0.34 | 0.02 | 93 | 1017.2 |
| 20260903120535 | 71 | 189 | 4.3 | 6.1 | 0.00 | 0.34 | 0.02 | 93 | 1017.4 |
| 20260903120035 | 71 | 157 | 2.6 | 7.0 | 0.01 | 0.34 | 0.02 | 93 | 1017.3 |
| 20260903115532 | 71 | 184 | 4.3 | 7.0 | 0.01 | 0.34 | 0.02 | 92 | 1017.3 |
| 20260903115032 | 71 | 203 | 1.7 | 5.2 | 0.01 | 0.34 | 0.02 | 92 | 1017.7 |
| 20260903114533 | 71 | 172 | 1.7 | 5.2 | 0.01 | 0.34 | 0.02 | 92 | 1017.9 |
| 20260903114033 | 71 | 185 | 1.7 | 4.3 | 0.01 | 0.34 | 0.02 | 92 | 1017.8 |
| 20260903113528 | 71 | 242 | 0.0 | 5.2 | 0.01 | 0.34 | 0.02 | 92 | 1017.6 |
| 20260903113027 | 71 | 165 | 0.9 | 7.0 | 0.01 | 0.34 | 0.02 | 92 | 1017.5 |
| 20260903112546 | 71 | 242 | 3.5 | 7.0 | 0.01 | 0.34 | 0.02 | 92 | 1017.7 |
| 20260903112044 | 71 | 238 | 3.5 | 6.1 | 0.01 | 0.34 | 0.02 | 92 | 1017.6 |
| 20260903111540 | 71 | 258 | 0.9 | 6.1 | 0.01 | 0.34 | 0.02 | 92 | 1017.3 |
| 20260903111038 | 71 | 190 | 0.0 | 4.3 | 0.01 | 0.34 | 0.02 | 92 | 1017.3 |
| 20260903110535 | 71 | 211 | 2.6 | 7.0 | 0.00 | 0.33 | 0.01 | 92 | 1017.3 |
| 20260903110035 | 71 | 158 | 2.6 | 7.0 | 0.00 | 0.33 | 0.01 | 91 | 1017.2 |
| 20260903105533 | 71 | 124 | 4.3 | 6.1 | 0.00 | 0.33 | 0.01 | 91 | 1017.3 |
| 20260903105032 | 71 | 134 | 2.6 | 4.3 | 0.00 | 0.33 | 0.01 | 91 | 1017.6 |
| 20260903104529 | 71 | 84 | 0.9 | 2.6 | 0.01 | 0.33 | 0.01 | 92 | 1018.1 |
| 20260903104053 | 71 | 315 | 0.9 | 2.6 | 0.01 | 0.33 | 0.01 | 91 | 1018.4 |
| 20260903103530 | 71 | 315 | 0.9 | 2.6 | 0.01 | 0.33 | 0.01 | 91 | 1018.7 |
| 20260903103052 | 71 | 315 | 0.0 | 2.6 | 0.01 | 0.33 | 0.01 | 91 | 1018.4 |
| 20260903102553 | 71 | 315 | 0.9 | 1.7 | 0.01 | 0.33 | 0.01 | 91 | 1018.5 |
| 20260903102050 | 72 | 315 | 0.0 | 2.6 | 0.01 | 0.33 | 0.01 | 91 | 1018.2 |
| 20260903101552 | 71 | 315 | 0.9 | 3.5 | 0.01 | 0.33 | 0.01 | 91 | 1018.3 |
| 20260903101050 | 71 | 346 | 2.6 | 3.5 | 0.01 | 0.33 | 0.01 | 91 | 1018.1 |
| 20260903100553 | 71 | 30 | 0.9 | 3.5 | 0.01 | 0.33 | 0.01 | 91 | 1017.7 |
| 20260903100031 | 72 | 77 | 0.0 | 7.8 | 0.01 | 0.33 | 0.01 | 90 | 1017.5 |
| 20260903095549 | 72 | 74 | 1.7 | 7.8 | 0.01 | 0.33 | 0.01 | 90 | 1017.4 |
| 20260903095031 | 72 | 70 | 0.9 | 7.8 | 0.01 | 0.33 | 0.01 | 90 | 1018.0 |
| 20260903094528 | 72 | 30 | 3.5 | 7.8 | 0.00 | 0.32 | 0.00 | 90 | 1018.8 |
| 20260903094028 | 72 | 5 | 3.5 | 7.0 | 0.00 | 0.32 | 0.00 | 90 | 1018.8 |
| 20260903093545 | 72 | 82 | 2.6 | 7.8 | 0.00 | 0.32 | 0.00 | 89 | 1017.9 |
| 20260903093044 | 72 | 53 | 2.6 | 7.8 | 0.00 | 0.32 | 0.00 | 89 | 1018.5 |
| 20260903092541 | 72 | 9 | 1.7 | 8.7 | 0.00 | 0.32 | 0.00 | 89 | 1018.5 |
| 20260903092041 | 72 | 22 | 1.7 | 11.3 | 0.00 | 0.32 | 0.00 | 88 | 1018.2 |
| 20260903091537 | 72 | 51 | 5.2 | 15.6 | 0.00 | 0.32 | 0.00 | 87 | 1017.8 |
| 20260903091038 | 72 | 33 | 6.1 | 20.0 | 0.00 | 0.32 | 0.00 | 87 | 1018.1 |
| 20260903090533 | 72 | 85 | 11.3 | 20.0 | 0.00 | 0.32 | 0.00 | 88 | 1018.2 |
| 20260903090032 | 72 | 337 | 5.2 | 8.7 | 0.00 | 0.32 | 0.00 | 88 | 1017.8 |
| 20260903085528 | 72 | 29 | 0.9 | 4.3 | 0.00 | 0.32 | 0.00 | 88 | 1017.3 |
| 20260903085026 | 72 | 71 | 0.9 | 7.0 | 0.00 | 0.32 | 0.00 | 88 | 1017.3 |
| 20260903084524 | 72 | 45 | 0.9 | 7.8 | 0.00 | 0.32 | 0.00 | 88 | 1017.2 |
| 20260903084044 | 72 | 16 | 0.9 | 9.6 | 0.00 | 0.32 | 0.00 | 88 | 1017.3 |
| 20260903083525 | 72 | 43 | 2.6 | 9.6 | 0.00 | 0.32 | 0.00 | 88 | 1017.3 |
| 20260903083044 | 72 | 29 | 1.7 | 8.7 | 0.00 | 0.32 | 0.00 | 88 | 1017.5 |
| 20260903082541 | 72 | 5 | 3.5 | 7.8 | 0.00 | 0.32 | 0.00 | 88 | 1017.5 |
| 20260903082104 | 72 | 22 | 1.7 | 8.7 | 0.00 | 0.32 | 0.00 | 89 | 1017.5 |
| 20260903081541 | 72 | 360 | 1.7 | 10.4 | 0.00 | 0.32 | 0.00 | 89 | 1017.3 |
| 20260903081040 | 72 | 53 | 3.5 | 10.4 | 0.00 | 0.32 | 0.00 | 89 | 1017.2 |
| 20260903080538 | 72 | 59 | 3.5 | 11.3 | 0.00 | 0.32 | 0.00 | 89 | 1017.2 |
| 20260903080036 | 72 | 40 | 3.5 | 11.3 | 0.00 | 0.32 | 0.00 | 90 | 1017.2 |
| 20260903075533 | 72 | 55 | 5.2 | 10.4 | 0.00 | 0.32 | 0.00 | 90 | 1017.2 |
| 20260903075033 | 72 | 44 | 2.6 | 12.2 | 0.00 | 0.32 | 0.00 | 90 | 1017.3 |
| 20260903074530 | 72 | 337 | 6.1 | 12.2 | 0.00 | 0.32 | 0.00 | 90 | 1017.2 |
| 20260903074056 | 72 | 355 | 5.2 | 13.0 | 0.00 | 0.32 | 0.00 | 90 | 1017.1 |
| 20260903073557 | 72 | 9 | 6.1 | 13.0 | 0.00 | 0.32 | 0.00 | 90 | 1017.2 |
| 20260903073035 | 72 | 319 | 4.3 | 8.7 | 0.00 | 0.32 | 0.00 | 90 | 1017.0 |
| 20260903072558 | 72 | 157 | 0.9 | 3.5 | 0.00 | 0.32 | 0.00 | 89 | 1016.5 |
| 20260903072036 | 72 | 174 | 0.9 | 2.6 | 0.00 | 0.32 | 0.00 | 89 | 1016.4 |
| 20260903071537 | 72 | 174 | 0.0 | 1.7 | 0.00 | 0.32 | 0.00 | 90 | 1016.4 |
| 20260903071036 | 72 | 174 | 0.9 | 2.6 | 0.00 | 0.32 | 0.00 | 90 | 1016.3 |
| 20260903070534 | 72 | 174 | 0.9 | 2.6 | 0.00 | 0.32 | 0.00 | 89 | 1016.4 |
| 20260903070037 | 73 | 360 | 0.0 | 2.6 | 0.00 | 0.32 | 0.00 | 90 | 1016.5 |
| 20260903065534 | 73 | 360 | 0.0 | 2.6 | 0.00 | 0.32 | 0.00 | 90 | 1016.5 |
| 20260903065058 | 73 | 360 | 1.7 | 2.6 | 0.00 | 0.32 | 0.00 | 90 | 1016.7 |
| 20260903064559 | 73 | 144 | 0.0 | 2.6 | 0.00 | 0.32 | 0.00 | 89 | 1016.6 |
| 20260903064036 | 73 | 144 | 0.9 | 2.6 | 0.00 | 0.32 | 0.00 | 89 | 1016.4 |
| 20260903063533 | 73 | 148 | 2.6 | 2.6 | 0.00 | 0.32 | 0.00 | 89 | 1016.5 |
| 20260903063033 | 73 | 360 | 0.0 | 3.5 | 0.00 | 0.32 | 0.00 | 89 | 1016.7 |
| 20260903062553 | 73 | 360 | 0.9 | 4.3 | 0.00 | 0.32 | 0.00 | 89 | 1016.8 |
| 20260903062032 | 73 | 331 | 2.6 | 4.3 | 0.00 | 0.32 | 0.00 | 89 | 1016.8 |
| 20260903061530 | 73 | 33 | 0.9 | 2.6 | 0.00 | 0.32 | 0.00 | 89 | 1016.6 |
| 20260903061027 | 73 | 33 | 0.9 | 2.6 | 0.00 | 0.32 | 0.00 | 89 | 1016.6 |
| 20260903060526 | 73 | 22 | 0.9 | 5.2 | 0.00 | 0.32 | 0.00 | 89 | 1016.6 |
| 20260903060045 | 73 | 360 | 2.6 | 5.2 | 0.00 | 0.32 | 0.00 | 89 | 1016.7 |
| 20260903055542 | 73 | 5 | 1.7 | 5.2 | 0.00 | 0.32 | 0.00 | 88 | 1016.6 |
| 20260903055042 | 73 | 5 | 1.7 | 5.2 | 0.00 | 0.32 | 0.00 | 88 | 1016.7 |
| 20260903054539 | 73 | 19 | 2.6 | 7.0 | 0.00 | 0.32 | 0.00 | 88 | 1016.6 |
| 20260903054038 | 73 | 11 | 2.6 | 7.8 | 0.00 | 0.32 | 0.00 | 88 | 1016.6 |
| 20260903053540 | 73 | 17 | 3.5 | 7.8 | 0.00 | 0.32 | 0.00 | 88 | 1016.7 |
| 20260903053038 | 73 | 355 | 1.7 | 7.8 | 0.00 | 0.32 | 0.00 | 87 | 1016.6 |
| 20260903052536 | 73 | 346 | 1.7 | 4.3 | 0.00 | 0.32 | 0.00 | 87 | 1016.7 |
| 20260903052036 | 73 | 355 | 1.7 | 4.3 | 0.00 | 0.32 | 0.00 | 87 | 1016.5 |
| 20260903051534 | 73 | 9 | 1.7 | 3.5 | 0.00 | 0.32 | 0.00 | 86 | 1016.4 |
| 20260903051035 | 73 | 59 | 0.9 | 3.5 | 0.00 | 0.32 | 0.00 | 86 | 1016.5 |
| 20260903050532 | 73 | 59 | 0.9 | 3.5 | 0.00 | 0.32 | 0.00 | 86 | 1016.5 |
| 20260903050057 | 73 | 69 | 1.7 | 3.5 | 0.00 | 0.32 | 0.00 | 86 | 1016.5 |
| 20260903045533 | 73 | 32 | 0.9 | 3.5 | 0.00 | 0.32 | 0.00 | 86 | 1016.6 |
| 20260903045032 | 73 | 5 | 2.6 | 3.5 | 0.00 | 0.32 | 0.00 | 86 | 1016.7 |
| 20260903044549 | 73 | 319 | 1.7 | 2.6 | 0.00 | 0.32 | 0.00 | 86 | 1016.7 |
| 20260903044047 | 73 | 281 | 1.7 | 2.6 | 0.00 | 0.32 | 0.00 | 86 | 1016.7 |
| 20260903043543 | 73 | 189 | 0.9 | 2.6 | 0.00 | 0.32 | 0.00 | 85 | 1016.6 |
| 20260903043043 | 73 | 189 | 0.0 | 1.7 | 0.00 | 0.32 | 0.00 | 85 | 1016.6 |
| 20260903042540 | 73 | 189 | 0.9 | 1.7 | 0.00 | 0.32 | 0.00 | 85 | 1016.4 |
| 20260903042038 | 73 | 189 | 0.0 | 3.5 | 0.00 | 0.32 | 0.00 | 86 | 1016.6 |
| 20260903041536 | 73 | 189 | 0.9 | 4.3 | 0.00 | 0.32 | 0.00 | 85 | 1016.7 |
| 20260903041038 | 73 | 189 | 2.6 | 4.3 | 0.00 | 0.32 | 0.00 | 85 | 1016.7 |
| 20260903040534 | 73 | 198 | 2.6 | 4.3 | 0.00 | 0.32 | 0.00 | 85 | 1016.7 |
| 20260903040034 | 74 | 215 | 0.9 | 2.6 | 0.00 | 0.32 | 0.00 | 85 | 1016.8 |
| 20260903035556 | 74 | 329 | 0.0 | 2.6 | 0.00 | 0.32 | 0.32 | 85 | 1017.1 |
| 20260903035034 | 74 | 329 | 0.0 | 3.5 | 0.00 | 0.32 | 0.32 | 85 | 1017.2 |
| 20260903034532 | 74 | 329 | 1.7 | 3.5 | 0.00 | 0.32 | 0.32 | 85 | 1017.2 |
| 20260903034032 | 74 | 334 | 1.7 | 2.6 | 0.00 | 0.32 | 0.32 | 84 | 1017.2 |
| 20260903033529 | 74 | 175 | 0.0 | 1.7 | 0.00 | 0.32 | 0.32 | 84 | 1017.0 |
| 20260903033028 | 74 | 175 | 0.0 | 1.7 | 0.00 | 0.32 | 0.32 | 84 | 1017.1 |
| 20260903032523 | 74 | 175 | 0.9 | 2.6 | 0.00 | 0.32 | 0.32 | 84 | 1017.0 |
| 20260903032043 | 75 | 175 | 1.7 | 2.6 | 0.00 | 0.32 | 0.32 | 84 | 1016.9 |
| 20260903031602 | 75 | 175 | 0.9 | 1.7 | 0.00 | 0.32 | 0.32 | 84 | 1016.9 |
| 20260903031040 | 75 | 175 | 0.9 | 1.7 | 0.00 | 0.32 | 0.32 | 84 | 1017.1 |
| 20260903030537 | 75 | 175 | 0.9 | 2.6 | 0.00 | 0.32 | 0.32 | 84 | 1017.0 |
| 20260903030036 | 75 | 175 | 0.9 | 3.5 | 0.00 | 0.32 | 0.32 | 84 | 1016.9 |
| 20260903025556 | 75 | 175 | 2.6 | 3.5 | 0.00 | 0.32 | 0.32 | 84 | 1017.0 |
| 20260903025035 | 75 | 175 | 2.6 | 3.5 | 0.00 | 0.32 | 0.32 | 84 | 1017.2 |
| 20260903024536 | 75 | 156 | 1.7 | 2.6 | 0.00 | 0.32 | 0.32 | 84 | 1017.2 |
| 20260903024039 | 75 | 156 | 0.0 | 5.2 | 0.00 | 0.32 | 0.32 | 84 | 1017.1 |
| 20260903023536 | 75 | 156 | 1.7 | 7.0 | 0.00 | 0.32 | 0.32 | 84 | 1016.9 |
| 20260903023036 | 75 | 164 | 2.6 | 7.0 | 0.00 | 0.32 | 0.32 | 84 | 1016.8 |
| 20260903022533 | 75 | 144 | 4.3 | 7.0 | 0.00 | 0.32 | 0.32 | 84 | 1016.6 |
| 20260903022033 | 75 | 140 | 3.5 | 7.0 | 0.00 | 0.32 | 0.32 | 83 | 1016.5 |
| 20260903021530 | 75 | 152 | 3.5 | 7.0 | 0.00 | 0.32 | 0.32 | 83 | 1016.4 |
| 20260903021029 | 75 | 174 | 5.2 | 7.0 | 0.00 | 0.32 | 0.32 | 83 | 1016.6 |
| 20260903020552 | 75 | 153 | 3.5 | 7.0 | 0.00 | 0.32 | 0.32 | 83 | 1016.6 |
| 20260903020030 | 75 | 169 | 3.5 | 7.0 | 0.00 | 0.32 | 0.32 | 83 | 1016.7 |
| 20260903015530 | 75 | 145 | 3.5 | 6.1 | 0.00 | 0.32 | 0.32 | 82 | 1016.8 |
| 20260903015029 | 76 | 160 | 2.6 | 4.3 | 0.00 | 0.32 | 0.32 | 82 | 1017.0 |
| 20260903014527 | 76 | 153 | 2.6 | 7.0 | 0.00 | 0.32 | 0.32 | 82 | 1017.0 |
| 20260903014026 | 76 | 136 | 2.6 | 8.7 | 0.00 | 0.32 | 0.32 | 82 | 1017.0 |
| 20260903013542 | 76 | 132 | 4.3 | 8.7 | 0.00 | 0.32 | 0.32 | 81 | 1017.1 |
| 20260903013041 | 76 | 139 | 3.5 | 7.8 | 0.00 | 0.32 | 0.32 | 82 | 1017.1 |
| 20260903012539 | 76 | 152 | 4.3 | 7.8 | 0.00 | 0.32 | 0.32 | 81 | 1017.2 |
| 20260903012044 | 76 | 138 | 6.1 | 7.8 | 0.00 | 0.32 | 0.32 | 82 | 1017.0 |
| 20260903011539 | 76 | 146 | 5.2 | 7.8 | 0.00 | 0.32 | 0.32 | 82 | 1016.8 |
| 20260903011039 | 76 | 162 | 3.5 | 6.1 | 0.00 | 0.32 | 0.32 | 82 | 1016.9 |
| 20260903010535 | 76 | 153 | 5.2 | 6.1 | 0.00 | 0.32 | 0.32 | 83 | 1016.9 |
| 20260903010059 | 77 | 164 | 4.3 | 7.0 | 0.00 | 0.32 | 0.32 | 82 | 1017.0 |
| 20260903005534 | 77 | 168 | 3.5 | 6.1 | 0.00 | 0.32 | 0.32 | 82 | 1016.9 |
| 20260903005034 | 77 | 159 | 3.5 | 6.1 | 0.00 | 0.32 | 0.32 | 82 | 1016.7 |
| 20260903004531 | 77 | 146 | 2.6 | 5.2 | 0.00 | 0.32 | 0.32 | 82 | 1016.6 |
| 20260903004031 | 78 | 148 | 2.6 | 5.2 | 0.00 | 0.32 | 0.32 | 82 | 1016.7 |
| 20260903003526 | 78 | 140 | 1.7 | 6.1 | 0.00 | 0.32 | 0.32 | 82 | 1016.7 |
| 20260903003051 | 78 | 121 | 3.5 | 6.1 | 0.00 | 0.32 | 0.32 | 82 | 1016.5 |
| 20260903002552 | 78 | 123 | 3.5 | 6.1 | 0.00 | 0.32 | 0.32 | 82 | 1016.6 |
| 20260903002029 | 78 | 168 | 2.6 | 4.3 | 0.00 | 0.32 | 0.32 | 81 | 1016.8 |
| 20260903001526 | 79 | 168 | 2.6 | 4.3 | 0.00 | 0.32 | 0.32 | 81 | 1017.3 |
| 20260903001026 | 79 | 188 | 2.6 | 2.6 | 0.00 | 0.32 | 0.32 | 81 | 1017.1 |
| 20260903000543 | 79 | 188 | 1.7 | 4.3 | 0.00 | 0.32 | 0.32 | 80 | 1017.2 |
| 20260903000027 | 79 | 188 | 2.6 | 4.3 | 0.00 | 0.32 | 0.32 | 80 | 1017.2 |
| 20260902235543 | 79 | 190 | 3.5 | 5.2 | 0.00 | 0.32 | 0.32 | 80 | 1017.2 |
| 20260902235042 | 79 | 208 | 1.7 | 5.2 | 0.00 | 0.32 | 0.32 | 80 | 1017.3 |
| 20260902234540 | 80 | 183 | 3.5 | 7.0 | 0.00 | 0.32 | 0.32 | 80 | 1017.0 |
| 20260902234038 | 80 | 163 | 5.2 | 7.0 | 0.00 | 0.32 | 0.32 | 80 | 1017.1 |
| 20260902233536 | 80 | 186 | 3.5 | 6.1 | 0.00 | 0.32 | 0.32 | 79 | 1017.2 |
| 20260902233035 | 80 | 141 | 1.7 | 6.1 | 0.00 | 0.32 | 0.32 | 79 | 1017.3 |
| 20260902232558 | 80 | 150 | 1.7 | 4.3 | 0.00 | 0.32 | 0.32 | 79 | 1017.3 |
| 20260902232101 | 80 | 150 | 2.6 | 4.3 | 0.00 | 0.32 | 0.32 | 79 | 1017.2 |
| 20260902231537 | 80 | 169 | 2.6 | 6.1 | 0.00 | 0.32 | 0.32 | 79 | 1017.4 |
| 20260902231102 | 81 | 146 | 2.6 | 6.1 | 0.00 | 0.32 | 0.32 | 78 | 1017.4 |
| 20260902230538 | 81 | 150 | 3.5 | 6.1 | 0.00 | 0.32 | 0.32 | 77 | 1017.5 |
| 20260902230038 | 81 | 142 | 3.5 | 6.1 | 0.00 | 0.32 | 0.32 | 78 | 1017.2 |
| 20260902225535 | 82 | 121 | 3.5 | 6.1 | 0.00 | 0.32 | 0.32 | 77 | 1016.8 |
| 20260902225033 | 82 | 120 | 2.6 | 6.1 | 0.00 | 0.32 | 0.32 | 76 | 1017.1 |
| 20260902224531 | 82 | 121 | 2.6 | 6.1 | 0.00 | 0.32 | 0.32 | 76 | 1017.1 |
| 20260902224030 | 82 | 134 | 2.6 | 4.3 | 0.00 | 0.32 | 0.32 | 76 | 1017.1 |
| 20260902223552 | 82 | 182 | 2.6 | 4.3 | 0.00 | 0.32 | 0.32 | 75 | 1017.0 |
| 20260902223034 | 82 | 182 | 1.7 | 2.6 | 0.00 | 0.32 | 0.32 | 76 | 1016.9 |
| 20260902222533 | 83 | 182 | 0.9 | 1.7 | 0.00 | 0.32 | 0.32 | 75 | 1016.9 |
| 20260902222033 | 83 | 182 | 0.0 | 1.7 | 0.00 | 0.32 | 0.32 | 76 | 1017.0 |
| 20260902221535 | 83 | 182 | 0.0 | 2.6 | 0.00 | 0.32 | 0.32 | 74 | 1016.8 |
| 20260902221033 | 83 | 182 | 0.9 | 2.6 | 0.00 | 0.32 | 0.32 | 73 | 1017.0 |
| 20260902220555 | 84 | 182 | 0.9 | 3.5 | 0.00 | 0.32 | 0.32 | 72 | 1017.0 |
| 20260902220033 | 84 | 182 | 0.0 | 3.5 | 0.00 | 0.32 | 0.32 | 72 | 1016.8 |
| 20260902215556 | 84 | 227 | 0.0 | 3.5 | 0.00 | 0.32 | 0.32 | 72 | 1017.0 |
| 20260902215057 | 85 | 227 | 0.9 | 3.5 | 0.00 | 0.32 | 0.32 | 71 | 1017.2 |
| 20260902214534 | 85 | 187 | 0.0 | 4.3 | 0.00 | 0.32 | 0.32 | 70 | 1017.1 |
| 20260902214033 | 85 | 187 | 1.7 | 6.1 | 0.00 | 0.32 | 0.32 | 69 | 1017.1 |
| 20260902213530 | 85 | 144 | 2.6 | 6.1 | 0.00 | 0.32 | 0.32 | 70 | 1017.2 |
| 20260902213048 | 85 | 215 | 0.9 | 3.5 | 0.00 | 0.32 | 0.32 | 68 | 1017.2 |
| 20260902212524 | 85 | 258 | 0.9 | 3.5 | 0.00 | 0.32 | 0.32 | 71 | 1017.2 |
| 20260902212044 | 85 | 190 | 1.7 | 3.5 | 0.00 | 0.32 | 0.32 | 69 | 1017.2 |
| 20260902211541 | 85 | 220 | 1.7 | 3.5 | 0.00 | 0.32 | 0.32 | 69 | 1017.2 |
| 20260902211040 | 85 | 164 | 1.7 | 4.3 | 0.00 | 0.32 | 0.32 | 70 | 1017.2 |
| 20260902210538 | 84 | 269 | 1.7 | 3.5 | 0.00 | 0.32 | 0.32 | 71 | 1017.2 |
| 20260902210036 | 84 | 221 | 1.7 | 3.5 | 0.00 | 0.32 | 0.32 | 71 | 1017.2 |